| time (UTC) | temp C | wind direction | speed KPH | gust KPH | rain 1hr cm | rain 24hr cm | rain mn cm | humidity % | barometer mb |
| 20260505173409 | 14 | 96 | 3.2 | 6.4 | 0.00 | 0.00 | 0.33 | 80 | 1012.0 |
| 20260505172907 | 14 | 164 | 4.8 | 8.0 | 0.00 | 0.00 | 0.33 | 80 | 1013.0 |
| 20260505172407 | 14 | 175 | 3.2 | 6.4 | 0.00 | 0.00 | 0.33 | 80 | 1013.0 |
| 20260505171907 | 14 | 165 | 3.2 | 6.4 | 0.00 | 0.00 | 0.33 | 81 | 1012.0 |
| 20260505171408 | 14 | 147 | 1.6 | 3.2 | 0.00 | 0.00 | 0.33 | 82 | 1013.0 |
| 20260505170908 | 14 | 175 | 1.6 | 4.8 | 0.00 | 0.00 | 0.33 | 82 | 1013.0 |
| 20260505170409 | 13 | 181 | 3.2 | 4.8 | 0.00 | 0.00 | 0.33 | 83 | 1012.0 |
| 20260505165909 | 13 | 193 | 4.8 | 4.8 | 0.00 | 0.00 | 0.33 | 83 | 1013.0 |
| 20260505165407 | 13 | 168 | 3.2 | 3.2 | 0.00 | 0.00 | 0.33 | 85 | 1013.0 |
| 20260505164907 | 13 | 116 | 1.6 | 6.4 | 0.00 | 0.00 | 0.33 | 84 | 1012.0 |
| 20260505164407 | 13 | 147 | 3.2 | 3.2 | 0.00 | 0.00 | 0.33 | 85 | 1013.0 |
| 20260505163907 | 13 | 95 | 1.6 | 8.0 | 0.00 | 0.00 | 0.33 | 85 | 1013.0 |
| 20260505163407 | 13 | 151 | 1.6 | 4.8 | 0.00 | 0.00 | 0.33 | 86 | 1013.0 |
| 20260505162907 | 13 | 177 | 3.2 | 4.8 | 0.00 | 0.00 | 0.33 | 87 | 1013.0 |
| 20260505162407 | 13 | 179 | 4.8 | 4.8 | 0.00 | 0.00 | 0.33 | 88 | 1013.0 |
| 20260505161907 | 13 | 130 | 0.0 | 3.2 | 0.00 | 0.00 | 0.33 | 88 | 1012.0 |
| 20260505161407 | 13 | 181 | 3.2 | 4.8 | 0.00 | 0.00 | 0.33 | 89 | 1012.0 |
| 20260505160911 | 13 | 151 | 1.6 | 4.8 | 0.00 | 0.00 | 0.33 | 89 | 1012.0 |
| 20260505160408 | 13 | 180 | 3.2 | 4.8 | 0.00 | 0.00 | 0.33 | 89 | 1012.0 |
| 20260505152907 | 12 | 115 | 1.6 | 4.8 | 0.00 | 0.00 | 0.33 | 91 | 1012.0 |
| 20260505152407 | 12 | 135 | 3.2 | 4.8 | 0.00 | 0.00 | 0.33 | 90 | 1012.0 |
| 20260505151908 | 12 | 109 | 3.2 | 6.4 | 0.00 | 0.00 | 0.33 | 90 | 1012.0 |
| 20260505151407 | 12 | 70 | 1.6 | 6.4 | 0.00 | 0.00 | 0.33 | 90 | 1012.0 |
| 20260505150908 | 12 | 174 | 4.8 | 4.8 | 0.00 | 0.00 | 0.33 | 91 | 1012.0 |
| 20260505150407 | 12 | 133 | 1.6 | 6.4 | 0.00 | 0.00 | 0.33 | 91 | 1012.0 |
| 20260505140408 | 12 | 98 | 1.6 | 3.2 | 0.00 | 0.00 | 0.33 | 92 | 1012.0 |
| 20260505124907 | 11 | 125 | 3.2 | 4.8 | 0.00 | 0.00 | 0.33 | 94 | 1011.0 |
| 20260505124409 | 11 | 99 | 3.2 | 4.8 | 0.00 | 0.00 | 0.33 | 94 | 1011.0 |
| 20260505123907 | 11 | 93 | 3.2 | 6.4 | 0.00 | 0.00 | 0.33 | 94 | 1011.0 |
| 20260505123408 | 11 | 92 | 3.2 | 4.8 | 0.00 | 0.00 | 0.33 | 94 | 1012.0 |
| 20260505122907 | 11 | 109 | 1.6 | 3.2 | 0.00 | 0.00 | 0.33 | 94 | 1012.0 |
| 20260505122408 | 11 | 103 | 1.6 | 4.8 | 0.00 | 0.00 | 0.33 | 94 | 1012.0 |
| 20260505121908 | 11 | 105 | 1.6 | 4.8 | 0.00 | 0.00 | 0.33 | 94 | 1012.0 |
| 20260505121407 | 11 | 124 | 1.6 | 4.8 | 0.00 | 0.00 | 0.33 | 94 | 1012.0 |
| 20260505120907 | 11 | 124 | 3.2 | 4.8 | 0.00 | 0.00 | 0.33 | 94 | 1011.0 |
| 20260505120407 | 11 | 88 | 3.2 | 3.2 | 0.00 | 0.00 | 0.33 | 95 | 1011.0 |
| 20260505115908 | 11 | 84 | 0.0 | 3.2 | 0.00 | 0.00 | 0.33 | 95 | 1012.0 |
| 20260505115408 | 11 | 70 | 1.6 | 3.2 | 0.00 | 0.00 | 0.33 | 95 | 1012.0 |
| 20260505114907 | 11 | 18 | 1.6 | 3.2 | 0.00 | 0.00 | 0.33 | 95 | 1011.0 |
| 20260505114407 | 11 | 47 | 1.6 | 4.8 | 0.00 | 0.00 | 0.33 | 95 | 1011.0 |
| 20260505113908 | 11 | 34 | 3.2 | 4.8 | 0.00 | 0.00 | 0.33 | 95 | 1011.0 |
| 20260505113408 | 11 | 64 | 1.6 | 4.8 | 0.00 | 0.00 | 0.33 | 95 | 1011.0 |
| 20260505112907 | 11 | 88 | 3.2 | 4.8 | 0.00 | 0.00 | 0.33 | 95 | 1011.0 |
| 20260505112407 | 11 | 68 | 3.2 | 6.4 | 0.00 | 0.00 | 0.33 | 95 | 1011.0 |
| 20260505111907 | 11 | 40 | 4.8 | 4.8 | 0.00 | 0.00 | 0.33 | 95 | 1011.0 |
| 20260505111409 | 11 | 39 | 3.2 | 4.8 | 0.00 | 0.00 | 0.33 | 95 | 1011.0 |
| 20260505110908 | 11 | 27 | 6.4 | 6.4 | 0.00 | 0.00 | 0.33 | 96 | 1011.0 |
| 20260505110407 | 11 | 17 | 1.6 | 8.0 | 0.00 | 0.00 | 0.33 | 95 | 1012.0 |
| 20260505101907 | 11 | 32 | 3.2 | 4.8 | 0.00 | 0.00 | 0.33 | 95 | 1012.0 |
| 20260505101407 | 11 | 101 | 0.0 | 4.8 | 0.00 | 0.00 | 0.33 | 95 | 1012.0 |
| 20260505100907 | 11 | 38 | 4.8 | 4.8 | 0.00 | 0.00 | 0.33 | 95 | 1012.0 |
| 20260505100408 | 11 | 74 | 3.2 | 4.8 | 0.00 | 0.00 | 0.33 | 94 | 1012.0 |
| 20260505095907 | 11 | 82 | 1.6 | 6.4 | 0.00 | 0.00 | 0.33 | 94 | 1012.0 |
| 20260505095407 | 11 | 47 | 6.4 | 6.4 | 0.00 | 0.00 | 0.33 | 94 | 1012.0 |
| 20260505094907 | 11 | 55 | 3.2 | 8.0 | 0.00 | 0.00 | 0.33 | 94 | 1012.0 |
| 20260505094408 | 11 | 46 | 4.8 | 8.0 | 0.00 | 0.00 | 0.33 | 94 | 1012.0 |
| 20260505093907 | 11 | 53 | 4.8 | 6.4 | 0.00 | 0.00 | 0.33 | 94 | 1012.0 |
| 20260505093407 | 11 | 79 | 3.2 | 6.4 | 0.00 | 0.00 | 0.33 | 94 | 1012.0 |
| 20260505092907 | 11 | 23 | 3.2 | 4.8 | 0.00 | 0.00 | 0.33 | 94 | 1012.0 |
| 20260505092408 | 11 | 58 | 3.2 | 4.8 | 0.00 | 0.00 | 0.33 | 94 | 1012.0 |
| 20260505091907 | 11 | 85 | 3.2 | 8.0 | 0.13 | 0.00 | 0.33 | 94 | 1012.0 |
| 20260505091407 | 11 | 67 | 1.6 | 6.4 | 0.18 | 0.00 | 0.33 | 95 | 1012.0 |
| 20260505090907 | 11 | 99 | 3.2 | 8.0 | 0.13 | 0.00 | 0.30 | 95 | 1012.0 |
| 20260505090408 | 11 | 102 | 4.8 | 6.4 | 0.13 | 0.00 | 0.30 | 95 | 1012.0 |
| 20260505085907 | 11 | 51 | 3.2 | 4.8 | 0.05 | 0.00 | 0.28 | 95 | 1012.0 |
| 20260505085407 | 11 | 73 | 4.8 | 6.4 | 0.00 | 0.00 | 0.28 | 95 | 1012.0 |
| 20260505084907 | 11 | 40 | 1.6 | 6.4 | 0.05 | 0.00 | 0.28 | 95 | 1012.0 |
| 20260505084407 | 11 | 61 | 1.6 | 4.8 | 0.00 | 0.00 | 0.28 | 95 | 1012.0 |
| 20260505083907 | 11 | 93 | 0.0 | 3.2 | 0.00 | 0.00 | 0.28 | 95 | 1012.0 |
| 20260505083407 | 11 | 109 | 0.0 | 3.2 | 0.00 | 0.00 | 0.28 | 95 | 1012.0 |
| 20260505082907 | 11 | 309 | 0.0 | 3.2 | 0.00 | 0.00 | 0.28 | 95 | 1012.0 |
| 20260505082407 | 11 | 61 | 3.2 | 4.8 | 0.00 | 0.00 | 0.28 | 95 | 1012.0 |
| 20260505081907 | 11 | 113 | 3.2 | 4.8 | 0.05 | 0.00 | 0.28 | 95 | 1012.0 |
| 20260505081407 | 11 | 76 | 0.0 | 3.2 | 0.13 | 0.00 | 0.28 | 94 | 1012.0 |
| 20260505080907 | 11 | 96 | 1.6 | 4.8 | 0.18 | 0.00 | 0.25 | 94 | 1012.0 |
| 20260505080407 | 11 | 105 | 0.0 | 4.8 | 0.23 | 0.00 | 0.25 | 94 | 1012.0 |
| 20260505075907 | 11 | 120 | 0.0 | 3.2 | 0.43 | 0.00 | 0.23 | 94 | 1012.0 |
| 20260505075409 | 11 | 46 | 3.2 | 4.8 | 0.48 | 0.00 | 0.20 | 94 | 1012.0 |
| 20260505074908 | 11 | 130 | 1.6 | 4.8 | 0.30 | 0.00 | 0.15 | 94 | 1012.0 |
| 20260505074408 | 11 | 114 | 0.0 | 4.8 | 0.23 | 0.00 | 0.13 | 94 | 1013.0 |
| 20260505073911 | 11 | 9 | 3.2 | 4.8 | 0.30 | 0.00 | 0.10 | 94 | 1013.0 |
| 20260505073407 | 11 | 35 | 3.2 | 4.8 | 0.18 | 0.00 | 0.08 | 94 | 1012.0 |
| 20260505072907 | 11 | 44 | 1.6 | 4.8 | 0.13 | 0.00 | 0.05 | 94 | 1012.0 |
| 20260505072408 | 11 | 47 | 4.8 | 6.4 | 0.05 | 0.00 | 0.05 | 93 | 1012.0 |
| 20260505071908 | 11 | 99 | 0.0 | 4.8 | 0.13 | 0.00 | 0.05 | 93 | 1012.0 |
| 20260505071408 | 11 | 107 | 3.2 | 4.8 | 0.13 | 0.00 | 0.03 | 93 | 1013.0 |
| 20260505070907 | 11 | 346 | 0.0 | 4.8 | 0.13 | 0.00 | 0.03 | 93 | 1013.0 |
| 20260505070407 | 11 | 64 | 1.6 | 4.8 | 0.05 | 0.00 | 0.00 | 93 | 1013.0 |
| 20260505065907 | 11 | 33 | 1.6 | 3.2 | 0.00 | 0.00 | 0.41 | 92 | 1013.0 |
| 20260505065407 | 11 | 278 | 3.2 | 6.4 | 0.05 | 0.00 | 0.41 | 92 | 1013.0 |
| 20260505064907 | 11 | 284 | 1.6 | 4.8 | 0.13 | 0.00 | 0.41 | 92 | 1013.0 |
| 20260505064407 | 11 | 255 | 1.6 | 3.2 | 0.05 | 0.00 | 0.41 | 92 | 1012.0 |
| 20260505063907 | 11 | 293 | 3.2 | 4.8 | 0.00 | 0.00 | 0.38 | 92 | 1012.0 |
| 20260505063407 | 11 | 294 | 0.0 | 3.2 | 0.05 | 0.00 | 0.38 | 92 | 1013.0 |
| 20260505062908 | 11 | 315 | 3.2 | 4.8 | 0.05 | 0.00 | 0.38 | 92 | 1012.0 |
| 20260505062407 | 11 | 311 | 1.6 | 3.2 | 0.05 | 0.00 | 0.38 | 91 | 1012.0 |
| 20260505061909 | 11 | 211 | 0.0 | 3.2 | 0.05 | 0.00 | 0.38 | 91 | 1012.0 |
| 20260505061407 | 11 | 203 | 0.0 | 3.2 | 0.13 | 0.00 | 0.38 | 90 | 1012.0 |
| 20260505060908 | 11 | 143 | 3.2 | 3.2 | 0.18 | 0.00 | 0.38 | 90 | 1012.0 |
| 20260505060407 | 11 | 235 | 3.2 | 6.4 | 0.13 | 0.00 | 0.36 | 90 | 1012.0 |
| 20260505055908 | 11 | 174 | 1.6 | 4.8 | 0.18 | 0.00 | 0.33 | 90 | 1012.0 |
| 20260505055407 | 11 | 151 | 1.6 | 4.8 | 0.23 | 0.00 | 0.33 | 90 | 1012.0 |
| 20260505051907 | 11 | 189 | 3.2 | 4.8 | 0.05 | 0.00 | 0.23 | 89 | 1012.0 |
| 20260505051407 | 11 | 155 | 3.2 | 4.8 | 0.13 | 0.00 | 0.23 | 89 | 1012.0 |
| 20260505050907 | 11 | 179 | 6.4 | 6.4 | 0.13 | 0.00 | 0.23 | 89 | 1012.0 |
| 20260505050408 | 11 | 155 | 3.2 | 4.8 | 0.05 | 0.00 | 0.20 | 90 | 1013.0 |
| 20260505041412 | 12 | 181 | 4.8 | 4.8 | 0.05 | 0.00 | 0.08 | 85 | 1013.0 |
| 20260505040908 | 12 | 198 | 3.2 | 6.4 | 0.05 | 0.00 | 0.05 | 85 | 1013.0 |
| 20260505040407 | 12 | 180 | 0.0 | 8.0 | 0.05 | 0.00 | 0.05 | 85 | 1013.0 |
| 20260505035908 | 12 | 216 | 3.2 | 8.0 | 0.00 | 0.00 | 0.05 | 84 | 1013.0 |
| 20260505035408 | 12 | 83 | 1.6 | 3.2 | 0.05 | 0.00 | 0.05 | 85 | 1012.0 |
| 20260505034907 | 12 | 234 | 1.6 | 6.4 | 0.13 | 0.00 | 0.05 | 83 | 1012.0 |
| 20260505034407 | 12 | 228 | 4.8 | 4.8 | 0.05 | 0.00 | 0.05 | 84 | 1012.0 |
| 20260505033907 | 12 | 206 | 4.8 | 8.0 | 0.05 | 0.00 | 0.03 | 85 | 1012.0 |
| 20260505033407 | 13 | 183 | 3.2 | 6.4 | 0.05 | 0.00 | 0.03 | 85 | 1012.0 |
| 20260505032908 | 13 | 180 | 4.8 | 9.7 | 0.05 | 0.00 | 0.03 | 84 | 1012.0 |
| 20260505032408 | 13 | 160 | 4.8 | 6.4 | 0.05 | 0.00 | 0.03 | 84 | 1012.0 |
| 20260505031907 | 13 | 183 | 6.4 | 8.0 | 0.05 | 0.00 | 0.00 | 83 | 1012.0 |
| 20260505031407 | 13 | 181 | 4.8 | 9.7 | 0.05 | 0.00 | 0.00 | 84 | 1012.0 |
| 20260505030907 | 13 | 271 | 6.4 | 14.5 | 0.00 | 0.00 | 0.00 | 83 | 1012.0 |
| 20260505030407 | 13 | 67 | 0.0 | 4.8 | 0.00 | 0.00 | 0.00 | 83 | 1012.0 |
| 20260505025908 | 13 | 217 | 1.6 | 8.0 | 0.00 | 0.00 | 0.00 | 82 | 1012.0 |
| 20260505025407 | 13 | 180 | 3.2 | 4.8 | 0.00 | 0.00 | 0.00 | 83 | 1011.0 |
| 20260505024908 | 13 | 178 | 4.8 | 6.4 | 0.00 | 0.00 | 0.00 | 82 | 1012.0 |
| 20260505024408 | 13 | 188 | 3.2 | 3.2 | 0.00 | 0.00 | 0.00 | 82 | 1012.0 |
| 20260505023907 | 13 | 189 | 4.8 | 8.0 | 0.00 | 0.00 | 0.00 | 82 | 1012.0 |
| 20260505023407 | 13 | 196 | 3.2 | 4.8 | 0.00 | 0.00 | 0.00 | 81 | 1012.0 |
| 20260505022907 | 13 | 195 | 6.4 | 6.4 | 0.00 | 0.00 | 0.00 | 81 | 1012.0 |
| 20260505022407 | 13 | 197 | 6.4 | 9.7 | 0.00 | 0.00 | 0.00 | 80 | 1012.0 |
| 20260505021907 | 13 | 192 | 6.4 | 8.0 | 0.00 | 0.00 | 0.00 | 79 | 1012.0 |
| 20260505021408 | 13 | 205 | 4.8 | 9.7 | 0.00 | 0.00 | 0.00 | 79 | 1012.0 |
| 20260505020907 | 13 | 182 | 3.2 | 4.8 | 0.00 | 0.00 | 0.00 | 79 | 1012.0 |
| 20260505020407 | 13 | 169 | 1.6 | 8.0 | 0.00 | 0.00 | 0.00 | 80 | 1012.0 |
| 20260505015908 | 13 | 179 | 3.2 | 6.4 | 0.00 | 0.00 | 0.00 | 79 | 1012.0 |
| 20260505015408 | 13 | 200 | 3.2 | 9.7 | 0.00 | 0.00 | 0.00 | 78 | 1012.0 |
| 20260505014910 | 13 | 204 | 4.8 | 9.7 | 0.00 | 0.00 | 0.00 | 78 | 1012.0 |
| 20260505014408 | 14 | 186 | 6.4 | 16.1 | 0.00 | 0.00 | 0.00 | 77 | 1012.0 |
| 20260505013908 | 14 | 219 | 4.8 | 8.0 | 0.00 | 0.00 | 0.00 | 75 | 1012.0 |
| 20260505013407 | 15 | 210 | 8.0 | 8.0 | 0.00 | 0.00 | 0.00 | 73 | 1012.0 |
| 20260505012908 | 15 | 178 | 4.8 | 17.7 | 0.00 | 0.00 | 0.00 | 69 | 1012.0 |
| 20260505012407 | 15 | 199 | 4.8 | 6.4 | 0.00 | 0.00 | 0.00 | 73 | 1012.0 |
| 20260505011909 | 15 | 130 | 1.6 | 6.4 | 0.00 | 0.00 | 0.00 | 79 | 1012.0 |
| 20260505011409 | 15 | 134 | 3.2 | 4.8 | 0.00 | 0.00 | 0.00 | 80 | 1012.0 |
| 20260505010907 | 15 | 127 | 4.8 | 8.0 | 0.00 | 0.00 | 0.00 | 80 | 1012.0 |
| 20260505010407 | 15 | 130 | 1.6 | 6.4 | 0.00 | 0.00 | 0.00 | 80 | 1012.0 |
| 20260505005908 | 15 | 135 | 3.2 | 6.4 | 0.00 | 0.00 | 0.00 | 80 | 1012.0 |
| 20260505005407 | 15 | 136 | 8.0 | 9.7 | 0.00 | 0.00 | 0.00 | 80 | 1012.0 |
| 20260505004907 | 15 | 123 | 9.7 | 9.7 | 0.00 | 0.00 | 0.00 | 80 | 1012.0 |
| 20260505004407 | 15 | 122 | 8.0 | 8.0 | 0.00 | 0.00 | 0.00 | 80 | 1012.0 |
| 20260505003908 | 15 | 148 | 6.4 | 8.0 | 0.00 | 0.00 | 0.00 | 79 | 1012.0 |
| 20260505003408 | 15 | 124 | 8.0 | 8.0 | 0.00 | 0.00 | 0.00 | 79 | 1012.0 |
| 20260505002909 | 15 | 131 | 4.8 | 8.0 | 0.00 | 0.00 | 0.00 | 79 | 1012.0 |
| 20260505002407 | 15 | 114 | 4.8 | 12.9 | 0.00 | 0.00 | 0.00 | 78 | 1012.0 |
| 20260505001910 | 15 | 101 | 3.2 | 8.0 | 0.00 | 0.00 | 0.00 | 79 | 1012.0 |
| 20260505001408 | 15 | 133 | 4.8 | 6.4 | 0.00 | 0.00 | 0.00 | 79 | 1012.0 |
| 20260505000907 | 15 | 126 | 3.2 | 8.0 | 0.00 | 0.00 | 0.00 | 79 | 1012.0 |
| 20260505000407 | 15 | 51 | 4.8 | 9.7 | 0.00 | 0.00 | 0.00 | 78 | 1012.0 |
| 20260504235907 | 15 | 101 | 0.0 | 8.0 | 0.00 | 0.00 | 0.00 | 78 | 1012.0 |
| 20260504235408 | 15 | 114 | 4.8 | 8.0 | 0.00 | 0.00 | 0.00 | 78 | 1012.0 |
| 20260504234907 | 15 | 117 | 6.4 | 8.0 | 0.00 | 0.00 | 0.00 | 78 | 1012.0 |
| 20260504234408 | 15 | 95 | 0.0 | 8.0 | 0.00 | 0.00 | 0.00 | 78 | 1012.0 |
| 20260504233907 | 15 | 119 | 6.4 | 8.0 | 0.00 | 0.00 | 0.00 | 78 | 1012.0 |
| 20260504233407 | 15 | 93 | 4.8 | 8.0 | 0.00 | 0.00 | 0.00 | 77 | 1012.0 |
| 20260504232907 | 15 | 91 | 3.2 | 9.7 | 0.00 | 0.00 | 0.00 | 77 | 1012.0 |
| 20260504232407 | 15 | 86 | 3.2 | 8.0 | 0.00 | 0.00 | 0.00 | 78 | 1012.0 |
| 20260504231907 | 15 | 114 | 6.4 | 9.7 | 0.00 | 0.00 | 0.00 | 78 | 1012.0 |
| 20260504231409 | 15 | 94 | 4.8 | 12.9 | 0.00 | 0.00 | 0.00 | 78 | 1012.0 |
| 20260504230908 | 15 | 109 | 8.0 | 11.3 | 0.00 | 0.00 | 0.00 | 77 | 1012.0 |
| 20260504230408 | 15 | 98 | 3.2 | 8.0 | 0.00 | 0.00 | 0.00 | 78 | 1012.0 |
| 20260504225907 | 15 | 115 | 4.8 | 8.0 | 0.00 | 0.00 | 0.00 | 79 | 1012.0 |
| 20260504225408 | 15 | 94 | 4.8 | 8.0 | 0.00 | 0.00 | 0.00 | 77 | 1012.0 |
| 20260504224907 | 15 | 121 | 4.8 | 8.0 | 0.00 | 0.00 | 0.00 | 78 | 1012.0 |
| 20260504224407 | 15 | 97 | 4.8 | 8.0 | 0.00 | 0.00 | 0.00 | 78 | 1012.0 |
| 20260504223907 | 16 | 92 | 4.8 | 8.0 | 0.00 | 0.00 | 0.00 | 77 | 1012.0 |
| 20260504223407 | 16 | 103 | 6.4 | 8.0 | 0.00 | 0.00 | 0.00 | 77 | 1012.0 |
| 20260504222907 | 16 | 105 | 4.8 | 8.0 | 0.00 | 0.00 | 0.00 | 76 | 1012.0 |
| 20260504222409 | 16 | 114 | 3.2 | 9.7 | 0.00 | 0.00 | 0.00 | 75 | 1012.0 |
| 20260504221908 | 16 | 94 | 6.4 | 11.3 | 0.00 | 0.00 | 0.00 | 73 | 1012.0 |
| 20260504221409 | 17 | 118 | 4.8 | 8.0 | 0.00 | 0.00 | 0.00 | 72 | 1012.0 |
| 20260504220907 | 17 | 87 | 6.4 | 6.4 | 0.00 | 0.00 | 0.00 | 71 | 1012.0 |
| 20260504220409 | 17 | 108 | 3.2 | 8.0 | 0.00 | 0.00 | 0.00 | 70 | 1012.0 |
| 20260504215907 | 17 | 110 | 6.4 | 9.7 | 0.00 | 0.00 | 0.00 | 70 | 1012.0 |
| 20260504215409 | 17 | 108 | 4.8 | 6.4 | 0.00 | 0.00 | 0.00 | 72 | 1012.0 |
| 20260504214909 | 17 | 92 | 6.4 | 6.4 | 0.00 | 0.00 | 0.00 | 73 | 1012.0 |
| 20260504214409 | 17 | 108 | 4.8 | 8.0 | 0.00 | 0.00 | 0.00 | 73 | 1012.0 |
| 20260504213907 | 17 | 115 | 4.8 | 6.4 | 0.00 | 0.00 | 0.00 | 74 | 1012.0 |
| 20260504213407 | 17 | 109 | 6.4 | 8.0 | 0.00 | 0.00 | 0.00 | 72 | 1012.0 |
| 20260504212908 | 17 | 100 | 4.8 | 8.0 | 0.00 | 0.00 | 0.00 | 73 | 1012.0 |
| 20260504212407 | 17 | 70 | 8.0 | 8.0 | 0.00 | 0.00 | 0.00 | 73 | 1012.0 |
| 20260504211908 | 17 | 115 | 4.8 | 8.0 | 0.00 | 0.00 | 0.00 | 73 | 1012.0 |
| 20260504211410 | 17 | 109 | 3.2 | 8.0 | 0.00 | 0.00 | 0.00 | 72 | 1012.0 |
| 20260504210909 | 16 | 66 | 1.6 | 9.7 | 0.00 | 0.00 | 0.00 | 74 | 1012.0 |
| 20260504210407 | 16 | 101 | 6.4 | 8.0 | 0.00 | 0.00 | 0.00 | 74 | 1013.0 |
| 20260504205909 | 17 | 107 | 4.8 | 9.7 | 0.00 | 0.00 | 0.00 | 73 | 1012.0 |
| 20260504205409 | 16 | 88 | 3.2 | 9.7 | 0.00 | 0.00 | 0.00 | 74 | 1013.0 |
| 20260504204909 | 17 | 107 | 4.8 | 9.7 | 0.00 | 0.00 | 0.00 | 72 | 1013.0 |
| 20260504204407 | 17 | 95 | 4.8 | 6.4 | 0.00 | 0.00 | 0.00 | 73 | 1013.0 |
| 20260504203908 | 16 | 104 | 0.0 | 9.7 | 0.00 | 0.00 | 0.00 | 73 | 1012.0 |
| 20260504203407 | 17 | 93 | 4.8 | 9.7 | 0.00 | 0.00 | 0.00 | 72 | 1013.0 |
| 20260504202909 | 17 | 65 | 3.2 | 8.0 | 0.00 | 0.00 | 0.00 | 73 | 1012.0 |
| 20260504202407 | 17 | 88 | 6.4 | 9.7 | 0.00 | 0.00 | 0.00 | 72 | 1012.0 |
| 20260504201909 | 17 | 105 | 3.2 | 9.7 | 0.00 | 0.00 | 0.00 | 72 | 1012.0 |
| 20260504201408 | 17 | 120 | 4.8 | 12.9 | 0.00 | 0.00 | 0.00 | 72 | 1012.0 |
| 20260504200908 | 17 | 108 | 8.0 | 8.0 | 0.00 | 0.00 | 0.00 | 71 | 1012.0 |
| 20260504200409 | 17 | 134 | 4.8 | 16.1 | 0.00 | 0.00 | 0.00 | 70 | 1012.0 |
| 20260504195908 | 17 | 122 | 8.0 | 12.9 | 0.00 | 0.00 | 0.00 | 67 | 1012.0 |
| 20260504195410 | 17 | 118 | 8.0 | 8.0 | 0.00 | 0.00 | 0.00 | 67 | 1012.0 |
| 20260504194909 | 18 | 133 | 11.3 | 12.9 | 0.00 | 0.00 | 0.00 | 63 | 1013.0 |
| 20260504194410 | 18 | 61 | 3.2 | 8.0 | 0.00 | 0.00 | 0.00 | 63 | 1013.0 |
| 20260504193908 | 18 | 98 | 4.8 | 8.0 | 0.00 | 0.00 | 0.00 | 65 | 1013.0 |
| 20260504193409 | 18 | 95 | 6.4 | 8.0 | 0.00 | 0.00 | 0.00 | 66 | 1012.0 |
| 20260504192908 | 18 | 97 | 6.4 | 9.7 | 0.00 | 0.00 | 0.00 | 66 | 1012.0 |
| 20260504192409 | 18 | 120 | 4.8 | 11.3 | 0.00 | 0.00 | 0.00 | 63 | 1012.0 |
| 20260504191910 | 18 | 116 | 4.8 | 9.7 | 0.00 | 0.00 | 0.00 | 64 | 1013.0 |
| 20260504191409 | 18 | 176 | 6.4 | 9.7 | 0.00 | 0.00 | 0.00 | 63 | 1013.0 |
| 20260504190909 | 17 | 113 | 4.8 | 12.9 | 0.00 | 0.00 | 0.00 | 66 | 1012.0 |
| 20260504190409 | 17 | 117 | 6.4 | 11.3 | 0.00 | 0.00 | 0.00 | 64 | 1013.0 |
| 20260504185907 | 18 | 138 | 8.0 | 11.3 | 0.00 | 0.00 | 0.00 | 65 | 1013.0 |
| 20260504185411 | 18 | 124 | 4.8 | 8.0 | 0.00 | 0.00 | 0.00 | 67 | 1013.0 |
| 20260504184908 | 17 | 74 | 1.6 | 8.0 | 0.00 | 0.00 | 0.00 | 65 | 1013.0 |
| 20260504184407 | 17 | 129 | 4.8 | 8.0 | 0.00 | 0.00 | 0.00 | 68 | 1013.0 |
| 20260504183909 | 18 | 124 | 8.0 | 11.3 | 0.00 | 0.00 | 0.00 | 68 | 1013.0 |
| 20260504183409 | 18 | 101 | 3.2 | 8.0 | 0.00 | 0.00 | 0.00 | 68 | 1013.0 |
| 20260504182909 | 18 | 99 | 4.8 | 8.0 | 0.00 | 0.00 | 0.00 | 66 | 1013.0 |
| 20260504182409 | 18 | 129 | 4.8 | 8.0 | 0.00 | 0.00 | 0.00 | 65 | 1013.0 |
| 20260504181908 | 18 | 117 | 6.4 | 8.0 | 0.00 | 0.00 | 0.00 | 65 | 1013.0 |
| 20260504181410 | 18 | 111 | 3.2 | 9.7 | 0.00 | 0.00 | 0.00 | 67 | 1013.0 |
| 20260504180909 | 18 | 89 | 4.8 | 6.4 | 0.00 | 0.00 | 0.00 | 68 | 1012.0 |
| 20260504180408 | 17 | 122 | 4.8 | 6.4 | 0.00 | 0.00 | 0.00 | 69 | 1012.0 |
| 20260504175908 | 18 | 94 | 4.8 | 9.7 | 0.00 | 0.00 | 0.00 | 68 | 1012.0 |
| 20260504175409 | 18 | 97 | 3.2 | 6.4 | 0.00 | 0.00 | 0.00 | 66 | 1012.0 |
| 20260504174909 | 17 | 99 | 4.8 | 6.4 | 0.00 | 0.00 | 0.00 | 67 | 1012.0 |
| 20260504174409 | 17 | 96 | 0.0 | 8.0 | 0.00 | 0.00 | 0.00 | 67 | 1012.0 |
| 20260504173910 | 18 | 74 | 3.2 | 6.4 | 0.00 | 0.00 | 0.00 | 68 | 1012.0 |